Location: Godiavel Galaoual
(15.2485°N, 12.6604°W)
Time: 02:07:30
(UTC+00:00)

Transit 4A - Pass Details

Date: 17 June 2021
Orbit: 872 x 972 km, 66.8° (Epoch: 29 July)

Event Time Altitude Azimuth Distance (km) Brightness Sun altitude
Rises 21:53:06 0° 315° (NW) 3,466 12.0 -31.7°
Reaches altitude 10° 21:56:10 10° 300° (WNW) 2,538 11.0 -32.2°
Maximum altitude 22:00:25 21° 253° (WSW) 1,895 9.7 -33.0°
Enters shadow 22:01:41 20° 236° (SW) 1,968 9.7 -33.2°
Drops below altitude 10° 22:04:45 10° 206° (SSW) 2,578 - -33.8°
Sets 22:07:54 0° 190° (S) 3,537 - -34.3°
